User: anonymous   Login
Location: Les Chemineaux
(47.3024°N, 1.5104°E)
Time: 02:46:50
(UTC+00:00)
Language:

Cosmos 1707 - Orbit

View from above orbital plane
View from above orbital plane
View from above satellite
View from above satellite

Ground track
Ground track

The orbit data is extracted from the following two-line orbital elements,

1 16326U 85113A   25191.44363200  .00011693  00000-0  22713-3 0  9994
2 16326  82.4943 168.1220 0007752 112.7166 247.4904 15.47441732164161
Epoch (UTC): 10 July 2025 10:38:49
Eccentricity: 0.0007752
inclination: 82.4943°
perigee height: 419 km
apogee height: 429 km
right ascension of ascending node: 168.1220°
argument of perigee: 112.7166°
revolutions per day: 15.47441732
mean anomaly at epoch: 247.4904°
orbit number at epoch: 16416

The dashed part of the orbit path shows where the satellite is in the earth's shadow,  

DLR